Regional Weather Roundup
Issued by NWS Little Rock, AR

Home | Current Version | Previous Version | Text Only | Print | Product List | Glossary Off
Versions: 1 2 3 4 5 6 7 8 9 10 11 12 13 14 15 16 17 18 19 20 21 22 23 24 25 26 27 28 29 30 31

000
ASUS44 KLZK 212205
RWRLZK

WEATHER ROUNDUP FOR ARKANSAS
NATIONAL WEATHER SERVICE LITTLE ROCK AR
400 PM CST SAT JAN 21 2017

NOTE: "FAIR" INDICATES FEW OR NO CLOUDS BELOW 12,000 FEET WITH NO
SIGNIFICANT WEATHER AND/OR OBSTRUCTIONS TO VISIBILITY.

ARZ001-003-010-029-212300-
NORTHWEST ARKANSAS

CITY           SKY/WX    TMP DP  RH WIND       PRES   REMARKS
FAYETTEVILLE   CLOUDY    63  44  50 S15       29.48R
FORT SMITH     CLOUDY    66  52  60 SE3       29.45R
HARRISON       CLOUDY    67  38  34 S10G18    29.49S
BENTONVILLE    CLOUDY   N/A N/A N/A W3        29.48S
ROGERS         LGT RAIN  62  46  55 CALM      29.48S
SILOAM SPGS    CLOUDY    61  46  59 SW8       29.47S
HIGHFILL       CLOUDY    62  48  60 W3        29.47S
SPRINGDALE     CLOUDY    64  45  48 CALM      29.48F
$$

ARZ004-005-016-212300-
NORTH CENTRAL ARKANSAS

CITY           SKY/WX    TMP DP  RH WIND       PRES   REMARKS
BATESVILLE     CLOUDY    66  54  63 S9        29.52S
FLIPPIN        CLOUDY    70  43  37 SE5       29.46S
MTN HOME       CLOUDY    67  43  41 S9        29.48S
$$

ARZ040-041-212300-
WEST CENTRAL ARKANSAS

CITY           SKY/WX    TMP DP  RH WIND       PRES   REMARKS
MENA           CLOUDY    64  63  94 SE3       29.47S
MOUNT IDA      CLOUDY    66  58  75 VRB6      29.45
$$

ARZ009-017-025-026-028-212300-
NORTHEAST ARKANSAS

CITY           SKY/WX    TMP DP  RH WIND       PRES   REMARKS
CORNING        FAIR      66  59  77 SW7       29.54S
JONESBORO      PTSUNNY   66  57  72 S10       29.53F
NEWPORT        PTSUNNY   65  59  81 SE12      29.53S
WALNUT RIDGE   PTSUNNY   66  55  68 S14       29.53S
BLYTHEVILLE    MOSUNNY   67  57  70 SW7       29.54F
$$

ARZ022-023-033-042-044-212300-
CENTRAL ARKANSAS

CITY           SKY/WX    TMP DP  RH WIND       PRES   REMARKS
LITTLE ROCK    CLOUDY    66  59  78 E12       29.49F
N LITTLE ROCK    N/A     65  59  81 SE9       29.49F
SEARCY         CLOUDY    67  59  75 SE7       29.53F
HOT SPRINGS    CLOUDY    66  58  75 E5        29.47F
RUSSELLVILLE   CLOUDY    67  54  63 SE5       29.47F
CLINTON        FAIR      68  55  64 SE6       29.50S
$$

ARZ036-212300-
EAST ARKANSAS

CITY           SKY/WX    TMP DP  RH WIND       PRES   REMARKS
WEST MEMPHIS   CLOUDY    67  56  67 S8        29.54F
$$

ARZ050-053-066-070-073-212300-
SOUTHWEST ARKANSAS

CITY           SKY/WX    TMP DP  RH WIND       PRES   REMARKS
CAMDEN         MOSUNNY   68  55  64 S7        29.48R
TEXARKANA      PTSUNNY   64  61  90 E7        29.42F
EL DORADO      CLOUDY    69  60  73 SE10      29.49R
DE QUEEN       CLOUDY    64  61  90 E7        29.42F
$$

ARZ056-057-069-212300-
SOUTHEAST ARKANSAS

CITY           SKY/WX    TMP DP  RH WIND       PRES   REMARKS
PINE BLUFF     CLOUDY    67  59  75 E13       29.49F
STUTTGART      CLOUDY    66  54  63 SE9       29.52F
MONTICELLO     MOSUNNY   71  57  61 SE6       29.48F

$$






USA.gov is the U.S. government's official web portal to all federal, state and local government web resources and services.